Retour au catalogue

STARLINK-30079

ActifCommunicationsVLEO
NORAD 56706·PAYLOAD·🇺🇸 United States

Lancé May 19, 2023 depuis Cape Canaveral Space Force Station

Loading…

Prochains Passages (prochaines 24 heures)

TLE

FraisSource: CelesTrak SupGP

Époque: Sep 14, 2026, 22:21 UTC

1 56706C 23067U   26257.93173611  .00015951  00000+0  57803-3 0  2578
2 56706  43.0028 292.6468 0001648 254.0402  11.1853 15.27554548    12

Suivez STARLINK-30079 en temps réel avec AllMySat

Download on the App Store